Wind_Speed
8 7 6 6 6 5 4 4 5 4 4 3 3 4 4 4 5 5 5 5 6 6 6 7 7 8 8 8 8 9 9 10 10 10 10 10 10 9 9 8 7 7 6
9 7 6 6 6 6 5 5 5 5 4 4 3 4 4 4 5 5 5 5 6 6 6 7 7 8 8 9 9 9 9 10 10 10 11 12 12 11 11 10 9 9 8
10 9 7 7 6 6 6 6 5 5 5 4 4 4 4 4 4 4 5 5 5 5 6 7 7 7 7 8 9 9 9 9 10 10 10 11 11 11 12 12 11 11 11
11 10 9 8 8 7 7 7 6 6 5 5 5 5 4 4 4 4 4 4 4 5 5 6 6 6 6 7 8 9 9 10 11 11 11 11 12 12 12 13 13 13 13
12 11 10 9 9 8 8 8 7 6 6 6 5 5 4 4 4 4 3 3 4 4 4 4 5 5 6 7 7 8 9 9 10 10 10 11 12 13 13 13 13 13 14
13 12 11 11 10 9 8 8 7 6 6 6 6 5 4 4 4 3 3 3 3 3 3 4 4 5 6 6 6 7 8 8 9 10 10 11 11 11 12 13 13 13 14
14 13 12 11 11 10 9 8 8 7 6 6 6 5 5 4 4 4 3 3 2 3 3 4 5 5 6 6 6 7 7 8 8 9 9 10 11 11 12 12 13 14 14
15 14 13 12 12 11 10 9 9 8 7 6 6 6 5 4 4 3 3 3 3 4 4 5 5 6 6 6 6 7 7 8 8 9 9 10 11 12 13 13 13 14 14
17 16 14 13 13 12 11 10 9 9 8 7 7 6 5 5 4 4 4 4 4 4 5 5 6 6 6 7 7 8 8 9 9 10 10 11 11 12 13 14 14 15 15
18 17 15 15 14 13 12 12 11 9 9 8 7 7 6 5 5 5 4 5 5 6 6 6 6 7 7 8 8 9 10 10 11 11 11 12 12 13 14 14 15 15 16
18 17 16 15 14 13 13 12 11 10 10 9 8 7 7 6 6 6 5 6 6 7 7 7 8 8 9 9 9 10 11 11 12 12 13 13 13 14 14 15 15 15 16
19 18 16 15 14 14 13 13 12 11 10 10 9 8 8 7 7 7 7 7 7 8 8 9 9 10 10 10 11 11 12 13 13 14 14 14 14 15 15 16 16 16 17
20 19 17 16 15 15 14 14 13 11 10 10 10 9 9 8 8 9 9 9 9 9 10 10 11 11 12 12 12 13 13 14 14 15 15 15 16 16 17 17 18 18 18
19 19 17 17 16 15 15 14 14 12 11 11 10 10 10 10 10 11 11 11 11 11 12 12 13 13 14 15 15 15 16 16 16 16 17 17 18 18 18 19 19 19 20
19 18 17 17 17 16 16 15 14 13 13 12 12 11 11 12 12 12 13 14 14 14 14 15 15 16 17 17 18 18 18 18 19 19 19 20 20 20 20 20 21 21 21
19 18 17 17 17 17 16 16 15 15 14 14 14 14 14 14 14 15 15 16 16 17 17 18 19 19 20 21 21 21 22 22 22 22 22 22 23 23 23 23 23 23 23
18 17 17 17 18 18 17 17 17 17 16 16 16 16 17 17 17 18 18 19 19 20 21 21 22 23 23 24 24 25 25 25 25 25 25 25 25 25 25 25 25 25 25
18 18 17 17 18 18 19 18 18 18 18 18 18 19 19 20 20 21 21 22 23 24 24 25 26 26 27 27 27 28 28 28 28 28 28 27 27 27 27 28 28 28 28
18 18 19 19 19 20 21 21 20 20 20 20 21 22 22 23 24 24 24 25 26 27 28 28 29 29 29 30 30 30 31 31 31 31 31 31 30 30 30 31 31 31 31
19 19 20 20 21 21 21 22 23 23 23 24 24 25 25 26 26 26 27 27 28 29 30 31 32 32 32 33 33 33 33 33 34 34 34 34 34 34 34 34 34 34 34
19 20 21 21 21 22 23 24 25 26 27 27 28 28 28 28 29 29 30 31 31 32 33 34 34 35 35 35 35 35 36 36 37 38 37 37 37 37 37 37 37 37 37
20 20 21 22 22 23 24 25 26 27 29 29 30 31 31 31 32 33 34 34 34 35 35 35 36 37 37 37 37 37 37 37 38 38 39 39 40 40 40 40 39 39 39
21 22 22 23 23 24 25 26 27 28 29 31 31 32 33 34 35 36 37 37 38 38 38 37 37 38 38 39 40 40 39 39 39 40 41 41 41 42 42 43 42 42 42
23 24 25 26 26 26 28 29 30 31 32 33 34 34 35 36 36 38 39 39 40 40 40 41 40 40 41 41 42 42 42 42 42 42 43 44 44 45 45 45 44 44 44
26 27 27 28 28 29 31 32 33 33 34 35 36 36 37 37 39 40 41 41 41 42 43 43 43 43 44 44 45 45 46 46 46 46 47 47 47 48 48 47 47 47 47
28 29 30 31 32 33 34 35 35 36 36 37 39 39 40 41 42 43 43 44 44 45 46 45 45 46 46 47 48 48 48 49 49 49 49 50 50 51 50 50 50 50 50
Wind_Direction
210 213 216 214 208 208 206 200 199 198 196 199 209 213 216 221 223 226 229 230 235 244 251 255 252 255 255 256 255 257 260 254 253 251 251 251 252 252 253 250 249 253 256
212 211 211 208 205 206 204 198 202 208 213 214 213 216 220 227 227 226 229 234 242 248 255 262 265 266 265 264 262 265 266 262 259 260 259 258 257 256 257 256 255 256 258
214 215 210 205 201 201 200 197 200 204 211 217 218 220 226 229 229 228 232 240 248 252 260 263 269 277 277 274 269 268 271 268 262 263 262 262 261 261 262 260 261 260 261
213 214 211 208 206 204 201 199 201 205 213 223 228 229 226 220 221 227 235 246 253 256 261 266 274 283 290 290 285 280 280 278 268 265 264 264 265 265 264 263 260 260 261
214 214 213 212 209 206 201 203 208 213 221 228 229 222 214 211 218 226 235 243 251 260 266 274 284 290 296 299 296 291 287 285 277 271 270 275 271 270 268 268 265 263 261
217 217 216 213 211 210 207 207 212 216 221 223 222 218 213 216 224 233 238 240 252 262 271 282 288 294 299 302 300 298 295 293 288 280 280 283 280 281 279 274 274 271 268
217 216 214 212 212 211 210 210 215 216 217 218 218 217 216 219 229 238 242 249 262 267 274 283 291 295 300 303 305 305 305 303 300 292 288 287 283 282 283 282 280 280 276
217 216 217 216 215 214 213 214 215 213 212 215 217 212 208 218 227 231 241 255 268 276 278 283 289 295 299 302 303 304 305 304 303 300 296 293 289 284 282 282 280 280 279
218 219 220 220 217 216 216 214 213 213 212 211 213 215 218 226 235 242 248 258 268 277 281 283 286 289 294 298 300 302 303 303 301 299 297 296 295 292 289 286 282 281 280
217 218 220 221 219 216 215 215 213 214 213 214 216 218 222 229 240 250 254 262 271 277 281 282 285 290 295 297 299 301 301 302 302 300 297 296 295 293 290 288 287 284 282
217 217 218 218 217 215 216 213 211 209 211 212 215 219 224 232 241 250 261 270 277 281 282 284 286 289 294 297 300 301 301 301 301 301 300 298 297 295 293 291 289 287 285
217 217 216 217 217 214 211 207 208 211 212 216 221 225 231 238 246 255 266 275 280 283 284 284 285 289 292 295 296 298 299 299 299 299 298 298 297 295 293 293 290 290 288
218 217 216 216 215 212 210 209 210 211 213 219 225 231 237 244 252 260 267 273 279 281 283 284 286 288 290 293 295 296 297 298 297 296 296 296 296 295 294 293 292 290 289
213 213 213 215 215 212 213 213 214 216 220 225 232 240 245 251 260 266 269 272 276 279 281 283 286 287 289 290 292 294 295 296 295 295 295 295 294 294 293 293 292 291 289
211 212 214 216 215 214 216 218 219 224 230 234 239 248 256 259 263 268 271 273 275 278 281 283 285 286 287 288 289 290 291 293 293 293 293 293 293 292 292 292 292 292 291
212 213 215 218 217 217 219 221 223 228 235 241 248 255 261 266 268 271 274 276 278 280 282 285 286 286 287 288 288 289 290 290 291 291 291 290 290 290 291 291 291 291 291
215 216 217 219 221 224 226 228 231 237 242 248 254 261 266 270 272 273 276 277 279 280 282 283 285 285 285 286 287 288 289 290 289 289 289 289 288 288 288 288 289 289 289
221 221 223 225 226 229 232 234 237 241 247 254 259 264 269 271 274 275 275 277 278 280 282 283 284 285 285 285 286 287 288 288 288 288 288 288 287 286 286 286 285 286 286
224 225 227 228 231 234 237 238 242 246 252 256 261 265 270 272 275 275 276 277 278 279 281 282 283 285 286 286 286 286 287 287 287 286 286 286 286 286 285 284 283 283 284
230 231 232 234 237 238 241 244 248 252 257 260 263 267 270 273 276 277 278 280 281 282 282 283 284 284 285 286 286 285 286 286 286 286 284 284 285 284 284 283 283 282 282
234 237 239 242 245 245 248 250 253 257 260 263 266 268 271 273 275 277 279 281 282 284 284 283 283 283 284 285 285 284 285 286 286 285 284 283 283 283 283 283 282 282 281
238 240 244 246 250 252 253 255 257 260 263 265 268 270 273 275 276 278 279 280 282 283 284 284 283 283 283 283 284 284 285 286 286 285 283 283 283 283 282 282 282 280 279
243 245 248 252 255 257 258 260 262 264 267 268 269 271 273 275 277 279 280 280 281 282 283 284 284 284 283 283 283 284 285 285 285 285 284 283 283 283 283 282 282 281 279
249 250 253 256 257 260 262 265 266 267 270 271 271 272 274 276 277 279 280 280 281 282 282 283 284 285 284 284 283 283 284 284 284 285 285 283 282 283 282 283 282 281 279
253 254 256 258 260 263 265 267 269 271 272 273 274 275 276 277 277 279 279 279 280 281 282 283 283 283 283 283 283 283 283 284 284 284 284 284 283 282 282 282 282 280 279
256 257 260 262 264 266 267 269 270 271 272 273 274 276 276 277 277 278 279 280 281 281 282 283 283 284 284 283 284 284 284 284 284 284 284 284 284 283 282 282 281 280 279
Height
5892 5893 5894 5894 5894 5895 5895 5896 5896 5897 5897 5898 5898 5898 5899 5899 5899 5899 5900 5900 5901 5901 5901 5901 5901 5901 5901 5902 5902 5902 5902 5902 5903 5903 5903 5904 5904 5904 5904 5904 5904 5905 5905
5890 5891 5892 5893 5893 5894 5894 5895 5896 5896 5897 5897 5898 5898 5898 5898 5898 5899 5899 5899 5900 5900 5900 5900 5900 5900 5900 5900 5900 5900 5900 5900 5901 5901 5901 5902 5902 5902 5902 5903 5903 5903 5903
5888 5889 5891 5892 5892 5893 5894 5894 5895 5896 5896 5897 5897 5897 5897 5898 5898 5898 5898 5899 5899 5899 5899 5899 5899 5899 5898 5898 5898 5898 5898 5898 5899 5899 5899 5900 5900 5900 5900 5901 5901 5901 5902
5886 5888 5889 5890 5891 5892 5893 5894 5894 5895 5896 5896 5896 5896 5897 5897 5897 5897 5898 5898 5898 5898 5898 5898 5898 5898 5897 5897 5897 5897 5897 5896 5897 5897 5897 5897 5898 5898 5898 5898 5898 5899 5899
5885 5886 5887 5889 5890 5891 5892 5893 5894 5894 5895 5895 5895 5896 5896 5896 5897 5897 5897 5897 5897 5897 5897 5897 5897 5897 5896 5896 5896 5895 5895 5895 5895 5895 5895 5895 5895 5895 5895 5895 5896 5896 5896
5883 5884 5885 5886 5888 5890 5891 5892 5893 5893 5894 5894 5895 5895 5896 5896 5896 5896 5897 5897 5897 5897 5896 5896 5896 5896 5895 5895 5895 5894 5894 5893 5893 5893 5893 5893 5893 5893 5893 5893 5893 5893 5893
5881 5882 5884 5885 5886 5888 5889 5890 5891 5892 5893 5894 5895 5895 5895 5895 5895 5896 5896 5896 5896 5896 5896 5896 5895 5895 5895 5894 5894 5893 5893 5892 5892 5891 5891 5891 5891 5891 5890 5890 5890 5890 5890
5878 5880 5882 5883 5885 5886 5888 5889 5890 5891 5892 5893 5894 5894 5895 5896 5895 5895 5895 5896 5896 5895 5895 5895 5895 5894 5894 5893 5893 5892 5892 5891 5890 5890 5890 5889 5889 5888 5888 5888 5887 5887 5887
5876 5878 5880 5881 5883 5884 5886 5887 5889 5890 5891 5892 5892 5894 5894 5895 5895 5895 5895 5895 5895 5895 5895 5894 5894 5893 5893 5892 5892 5891 5890 5890 5889 5888 5888 5887 5886 5886 5886 5885 5885 5884 5884
5873 5875 5877 5879 5881 5882 5884 5885 5887 5888 5890 5890 5891 5892 5893 5893 5894 5894 5894 5894 5894 5894 5894 5893 5893 5892 5891 5891 5890 5890 5889 5888 5887 5886 5886 5885 5884 5883 5883 5882 5881 5881 5880
5870 5872 5874 5876 5878 5880 5882 5883 5885 5886 5888 5889 5890 5891 5892 5892 5892 5893 5893 5893 5893 5892 5892 5892 5891 5891 5890 5889 5889 5888 5887 5886 5885 5884 5883 5882 5882 5881 5880 5879 5878 5877 5877
5867 5870 5872 5874 5876 5878 5880 5882 5883 5885 5886 5887 5889 5890 5890 5891 5891 5891 5891 5891 5891 5891 5890 5890 5890 5889 5888 5887 5887 5886 5885 5884 5883 5882 5881 5880 5879 5877 5876 5875 5874 5874 5873
5865 5867 5869 5872 5874 5876 5878 5880 5882 5883 5885 5886 5887 5888 5888 5889 5889 5889 5889 5889 5889 5889 5888 5888 5887 5886 5886 5885 5884 5883 5882 5881 5880 5879 5878 5876 5875 5874 5873 5872 5871 5870 5869
5862 5864 5867 5869 5871 5874 5876 5878 5880 5881 5883 5884 5885 5886 5886 5886 5886 5886 5887 5886 5886 5886 5885 5885 5884 5883 5882 5882 5881 5880 5879 5878 5876 5875 5874 5873 5871 5870 5869 5868 5866 5865 5864
5860 5862 5864 5867 5869 5872 5874 5876 5877 5879 5881 5882 5883 5883 5884 5884 5883 5883 5883 5883 5883 5883 5882 5882 5881 5880 5879 5878 5877 5876 5875 5873 5872 5871 5869 5868 5867 5865 5864 5863 5862 5860 5859
5858 5860 5862 5865 5867 5869 5871 5873 5875 5877 5878 5879 5880 5880 5881 5881 5880 5880 5880 5880 5879 5879 5878 5877 5876 5875 5874 5873 5872 5871 5870 5868 5867 5866 5864 5863 5861 5860 5859 5858 5856 5855 5854
5856 5858 5860 5863 5865 5867 5869 5871 5872 5873 5875 5875 5876 5877 5877 5877 5877 5876 5876 5875 5875 5874 5873 5872 5871 5870 5869 5868 5866 5865 5864 5862 5861 5860 5858 5857 5855 5854 5852 5851 5850 5849 5847
5853 5856 5858 5860 5862 5864 5866 5867 5869 5870 5871 5871 5872 5872 5872 5872 5872 5871 5871 5870 5870 5869 5868 5867 5865 5864 5863 5861 5860 5858 5857 5855 5854 5853 5851 5850 5848 5847 5846 5844 5843 5842 5840
5851 5853 5855 5857 5859 5860 5862 5863 5864 5866 5866 5867 5867 5867 5867 5867 5866 5866 5865 5864 5863 5863 5861 5860 5859 5857 5856 5854 5853 5851 5850 5848 5846 5845 5844 5842 5841 5839 5838 5837 5835 5834 5833
5848 5850 5852 5853 5854 5856 5857 5859 5860 5860 5861 5861 5862 5862 5861 5861 5860 5859 5859 5858 5856 5855 5854 5852 5851 5849 5848 5846 5845 5843 5841 5840 5838 5836 5835 5833 5832 5830 5829 5828 5827 5825 5824
5844 5846 5848 5849 5850 5851 5852 5853 5854 5855 5855 5856 5856 5855 5855 5854 5853 5853 5852 5851 5849 5848 5846 5844 5843 5841 5839 5837 5835 5834 5832 5830 5828 5826 5825 5823 5822 5820 5819 5818 5817 5815 5814
5841 5842 5843 5844 5845 5846 5847 5847 5848 5849 5849 5849 5849 5848 5848 5847 5846 5844 5843 5842 5841 5839 5837 5835 5834 5832 5830 5828 5825 5824 5822 5820 5818 5816 5814 5813 5811 5809 5808 5807 5806 5805 5803
5836 5837 5838 5839 5839 5840 5841 5841 5841 5842 5842 5842 5841 5840 5839 5838 5837 5836 5834 5833 5831 5829 5828 5826 5824 5822 5819 5817 5815 5813 5811 5810 5808 5805 5803 5802 5800 5798 5796 5794 5793 5792 5791
5831 5832 5832 5833 5834 5834 5835 5834 5834 5834 5834 5833 5832 5831 5830 5829 5827 5826 5824 5823 5821 5819 5817 5815 5814 5811 5809 5807 5804 5802 5800 5798 5797 5794 5792 5790 5788 5786 5784 5782 5781 5779 5778
5825 5825 5826 5826 5827 5827 5827 5827 5826 5826 5825 5824 5823 5822 5821 5819 5818 5815 5814 5812 5810 5808 5806 5804 5802 5800 5797 5795 5792 5790 5788 5785 5784 5782 5779 5777 5775 5773 5771 5769 5767 5766 5764
5818 5819 5819 5819 5819 5819 5819 5818 5817 5816 5816 5815 5813 5812 5810 5809 5807 5804 5802 5801 5799 5797 5794 5792 5789 5787 5784 5782 5779 5776 5774 5771 5769 5768 5765 5762 5760 5757 5756 5754 5752 5750 5749